This is the latest recevied weather packets stored in our database for station/object DK0KTL-4. If no packets are shown the sender has not sent any weather packets the latest 10 day(s).
| Time | Temp. | Humidity | Pressure | Rain* | Wind** | Luminosity | Snow |
|---|---|---|---|---|---|---|---|
| 1778063832 | 17.78° C | 66% | 1004.3 hPa | 0 mm | - | - | - |
| 1778063531 | 17.78° C | 62% | 1004.3 hPa | 0 mm | - | - | - |
| 1778062931 | 17.78° C | 63% | 1004.4 hPa | 0 mm | - | - | - |
| 1778062630 | 17.78° C | 62% | 1004.4 hPa | 0 mm | - | - | - |
| 1778062030 | 17.78° C | 65% | 1004.4 hPa | 0 mm | - | - | - |
| 1778061730 | 17.78° C | 64% | 1004.5 hPa | 0 mm | - | - | - |
| 1778061429 | 17.78° C | 64% | 1004.6 hPa | 0 mm | - | - | - |
| 1778061129 | 17.78° C | 61% | 1004.5 hPa | 0 mm | - | - | - |
| 1778060829 | 17.78° C | 65% | 1004.4 hPa | 0 mm | - | - | - |
| 1778060529 | 18.33° C | 61% | 1004.3 hPa | 0 mm | - | - | - |
| 1778059928 | 17.78° C | 63% | 1004.2 hPa | 0 mm | - | - | - |
| 1778059327 | 17.78° C | 62% | 1004.1 hPa | 0 mm | - | - | - |
| 1778058727 | 18.33° C | 67% | 1004.1 hPa | 0 mm | - | - | - |
| 1778057525 | 16.67° C | 70% | 1004.1 hPa | 0 mm | - | - | - |
| 1778056925 | 16.67° C | 70% | 1004.1 hPa | 0 mm | - | - | - |
| 1778056625 | 16.67° C | 70% | 1004 hPa | 0 mm | - | - | - |
| 1778056324 | 17.22° C | 69% | 1003.9 hPa | 0 mm | - | - | - |
| 1778055123 | 16.11° C | 74% | 1003.7 hPa | 0 mm | - | - | - |
| 1778054823 | 16.11° C | 74% | 1003.8 hPa | 0 mm | - | - | - |
| 1778054523 | 16.11° C | 78% | 1003.7 hPa | 0 mm | - | - | - |
| 1778054222 | 16.11° C | 79% | 1003.7 hPa | 0 mm | - | - | - |
| 1778053021 | 15.56° C | 77% | 1003.8 hPa | 0 mm | - | - | - |
| 1778052721 | 15.56° C | 80% | 1003.7 hPa | 0 mm | - | - | - |
| 1778052421 | 15° C | 83% | 1003.7 hPa | 0 mm | - | - | - |
| 1778052120 | 15° C | 83% | 1003.8 hPa | 0 mm | - | - | - |
* Rain latest hour (hover to see other rain measurements)
** Current wind speed in m/s (hover to see current wind gust speed)